Date_and_time,latitude,longitude,wind_speed,RelWindDirFrom,WindDirFrom,air_pressure,air_temperature,relative_humidity,Temp,platform_speed_wrt_ground,air_pressure_at_mean_sea_level,platform_orientation
2019-02-18 23:50,50.6304483333333,-96.9807733333333,5.9,6.7,176,1006.07,-20.5,68,0.38,0.0,1036.67,299.2
2019-02-19 00:00,50.6304466666667,-96.9807716666667,5.3,6.0,175,1006.08,-20.9,67,0.38,0.0,1036.73,347.4
2019-02-19 00:10,50.6304716666667,-96.9807783333333,4.6,5.4,179,1006.04,-21.1,67,0.38,0.0,1036.70,347.4
2019-02-19 00:20,50.6304483333333,-96.9807683333333,4.8,5.8,181,1006.06,-21.1,66,0.38,0.0,1036.69,347.4
2019-02-19 00:30,50.630445,-96.980765,4.0,4.5,180,1006.08,-21.4,67,0.38,0.0,1036.71,347.4
2019-02-19 00:40,50.6304383333333,-96.9807666666667,3.8,4.5,171,1006.08,-21.5,67,0.38,0.0,1036.76,347.4
2019-02-19 00:50,50.6304483333333,-96.9807733333333,4.0,4.7,174,1006.11,-21.5,67,0.38,0.0,1036.83,347.4
2019-02-19 01:00,50.6304466666667,-96.9807766666667,3.6,5.1,176,1006.14,-21.7,68,0.38,0.0,1036.90,38.0
2019-02-19 01:10,50.6304483333333,-96.980775,4.7,5.4,178,1006.07,-21.8,67,0.38,0.0,1036.85,38.0
2019-02-19 01:20,50.6304483333333,-96.980775,4.1,4.8,174,1006.00,-21.6,67,0.39,0.0,1036.74,38.0
2019-02-19 01:30,50.6304483333333,-96.9807716666667,3.8,4.8,171,1005.92,-21.5,67,0.39,0.0,1036.66,38.0
2019-02-19 01:40,50.6304483333333,-96.98077,3.2,3.5,176,1005.83,-22.0,69,0.39,0.0,1036.63,38.0
2019-02-19 01:50,50.6304483333333,-96.98077,2.8,3.3,186,1005.77,-22.1,71,0.40,0.0,1036.59,38.0
2019-02-19 02:00,50.6304466666667,-96.98077,3.9,5.5,195,1005.72,-21.8,70,0.40,0.0,1036.53,49.4
2019-02-19 02:10,50.6304466666667,-96.98077,5.0,5.9,192,1005.64,-21.8,70,0.40,0.0,1036.46,49.4
2019-02-19 02:20,50.630435,-96.980785,3.9,4.7,196,1005.60,-21.8,71,0.40,0.0,1036.43,49.4
2019-02-19 02:30,50.63043,-96.98075,4.1,4.9,209,1005.46,-21.8,72,0.40,0.0,1036.29,49.4
2019-02-19 02:40,50.6304233333333,-96.98077,4.5,5.6,216,1005.34,-21.8,72,0.40,0.0,1036.17,49.4
2019-02-19 02:50,50.63045,-96.9807666666667,5.3,5.9,224,1005.32,-21.6,71,0.40,0.0,1036.16,49.4
2019-02-19 03:00,50.63045,-96.980775,4.5,5.4,221,1005.26,-21.7,71,0.40,0.0,1036.10,360.0
2019-02-19 03:10,50.6304466666667,-96.9807666666667,3.8,4.4,214,1005.22,-22.1,72,0.40,0.0,1036.06,360.0
2019-02-19 03:20,50.6304433333333,-96.9807666666667,4.6,5.4,225,1005.12,-22.1,72,0.40,0.0,1035.96,360.0
2019-02-19 03:30,50.6304416666667,-96.9807666666667,4.3,5.1,220,1005.07,-22.1,72,0.40,0.0,1035.95,360.0
2019-02-19 03:40,50.6304416666667,-96.980765,4.4,5.1,230,1005.01,-22.0,73,0.40,0.0,1035.88,360.0
2019-02-19 03:50,50.63044,-96.9807666666667,3.8,4.9,223,1004.94,-22.0,73,0.40,0.0,1035.79,360.0
2019-02-19 04:00,50.63044,-96.98077,3.0,3.7,225,1004.88,-22.3,73,0.40,0.0,1035.74,131.7
2019-02-19 04:10,50.63043,-96.9807716666667,3.5,4.2,221,1004.74,-22.4,74,0.40,0.0,1035.61,131.7
2019-02-19 04:20,50.6304166666667,-96.9807683333333,4.0,4.7,218,1004.72,-22.7,75,0.40,0.0,1035.61,131.7
2019-02-19 04:30,50.6304183333333,-96.9807666666667,3.8,4.8,219,1004.66,-22.6,76,0.40,0.0,1035.54,131.7
2019-02-19 04:40,50.630425,-96.9807666666667,3.2,4.1,213,1004.59,-22.7,76,0.40,0.0,1035.46,131.7
2019-02-19 04:50,50.6304283333333,-96.9807683333333,3.4,4.3,203,1004.53,-23.2,76,0.40,0.0,1035.44,131.7
2019-02-19 05:00,50.6304133333333,-96.9808,4.3,5.3,207,1004.51,-24.0,78,0.40,0.0,1035.49,217.0
2019-02-19 05:10,50.6304433333333,-96.9807983333333,4.9,5.5,202,1004.51,-24.0,78,0.40,0.0,1035.49,217.0
2019-02-19 05:20,50.6304383333333,-96.9807933333333,5.3,6.1,194,1004.46,-24.0,78,0.40,0.0,1035.44,217.0
2019-02-19 05:30,50.630435,-96.98079,5.0,6.7,201,1004.42,-24.1,78,0.40,0.0,1035.39,217.0
2019-02-19 05:40,50.63044,-96.9807883333333,4.6,5.7,198,1004.34,-24.1,78,0.39,0.0,1035.31,217.0
2019-02-19 05:50,50.6304416666667,-96.9807866666667,4.4,5.0,192,1004.23,-24.3,78,0.40,0.0,1035.23,217.0
2019-02-19 06:00,50.630445,-96.9807766666667,4.3,5.2,190,1004.12,-24.5,78,0.39,0.0,1035.14,360.0
2019-02-19 06:10,50.63044,-96.9807866666667,5.1,5.6,191,1004.08,-24.6,79,0.39,0.0,1035.12,360.0
2019-02-19 06:20,50.6304383333333,-96.9807833333333,6.3,7.3,188,1004.02,-24.7,78,0.39,0.0,1035.06,360.0
2019-02-19 06:30,50.6304383333333,-96.9807816666667,6.2,6.8,187,1003.92,-24.8,79,0.39,0.0,1034.98,360.0
2019-02-19 06:40,50.630435,-96.9807833333333,6.0,6.7,187,1003.90,-25.0,79,0.39,0.0,1035.00,360.0
2019-02-19 06:50,50.6304416666667,-96.9807733333333,6.4,7.0,182,1003.86,-25.1,79,0.39,0.0,1035.01,360.0
2019-02-19 07:00,50.6304183333333,-96.9807483333333,6.4,7.3,180,1003.83,-25.3,79,0.39,0.0,1034.99,360.0
2019-02-19 07:10,50.6304333333333,-96.9807716666667,5.6,6.3,179,1003.87,-25.2,80,0.38,0.0,1035.02,360.0
2019-02-19 07:20,50.6304316666667,-96.9807666666667,6.4,7.0,175,1003.64,-25.5,79,0.38,0.0,1034.81,360.0
2019-02-19 07:30,50.6304333333333,-96.9807683333333,6.6,7.3,180,1003.48,-26.1,79,0.38,0.0,1034.69,360.0
2019-02-19 07:40,50.6304333333333,-96.98077,7.1,8.5,180,1003.29,-25.8,80,0.38,0.0,1034.49,360.0
2019-02-19 07:50,50.63042,-96.9808066666667,8.3,8.9,180,1003.18,-25.7,80,0.38,0.0,1034.38,360.0
2019-02-19 08:00,50.6304166666667,-96.9807983333333,8.4,9.1,181,1003.17,-25.6,79,0.38,0.0,1034.37,90.0
2019-02-19 08:10,50.63042,-96.98078,8.3,10.0,183,1003.17,-25.5,79,0.38,0.0,1034.36,90.0
2019-02-19 08:20,50.6304266666667,-96.9807783333333,9.9,12.8,186,1002.96,-24.8,79,0.38,0.0,1034.12,90.0
2019-02-19 08:30,50.6304283333333,-96.98078,10.5,12.9,184,1002.86,-24.1,79,0.37,0.0,1033.98,90.0
2019-02-19 08:40,50.6304233333333,-96.9807683333333,10.6,13.3,186,1002.80,-24.0,79,0.37,0.0,1033.91,90.0
2019-02-19 08:50,50.63044,-96.9807716666667,11.0,13.7,187,1002.76,-23.9,79,0.37,0.0,1033.88,90.0
2019-02-19 09:00,50.6304383333333,-96.9807783333333,9.3,12.0,186,1002.73,-24.0,79,0.37,0.0,1033.86,270.0
2019-02-19 09:10,50.6304383333333,-96.9807783333333,8.3,10.5,188,1002.71,-24.0,79,0.37,0.0,1033.84,270.0
2019-02-19 09:20,50.6304366666667,-96.9807783333333,8.0,10.4,191,1002.67,-23.8,79,0.37,0.0,1033.83,270.0
2019-02-19 09:30,50.6304316666667,-96.9807533333333,7.2,9.7,189,1002.62,-23.8,78,0.36,0.0,1033.76,270.0
2019-02-19 09:40,50.6304383333333,-96.980765,7.8,9.9,181,1002.39,-24.0,78,0.36,0.0,1033.54,270.0
2019-02-19 09:50,50.6304383333333,-96.9807666666667,8.7,10.8,183,1002.25,-24.2,78,0.36,0.0,1033.40,270.0
2019-02-19 10:00,50.6304383333333,-96.9807666666667,9.4,10.8,182,1002.03,-24.2,78,0.36,0.0,1033.17,360.0
2019-02-19 10:10,50.63044,-96.9807683333333,8.9,10.5,182,1001.86,-24.3,78,0.36,0.0,1032.94,360.0
2019-02-19 10:20,50.6304383333333,-96.98077,9.5,11.8,182,1001.62,-24.2,78,0.36,0.0,1032.65,360.0
2019-02-19 10:30,50.6304366666667,-96.9807683333333,9.2,11.2,183,1001.47,-24.2,78,0.36,0.0,1032.49,360.0
2019-02-19 10:40,50.6304233333333,-96.9807633333333,8.8,10.9,185,1001.39,-24.2,78,0.36,0.0,1032.40,360.0
2019-02-19 10:50,50.63043,-96.9807633333333,8.4,10.5,184,1001.20,-24.3,78,0.36,0.0,1032.22,360.0
2019-02-19 11:00,50.6304316666667,-96.980775,7.7,9.3,183,1000.99,-24.6,78,0.35,0.0,1032.02,43.0
2019-02-19 11:10,50.6304333333333,-96.9807783333333,9.1,11.0,182,1000.82,-24.6,78,0.35,0.0,1031.83,43.0
2019-02-19 11:20,50.6304333333333,-96.9807816666667,8.6,11.0,185,1000.73,-24.7,78,0.35,0.0,1031.74,43.0
2019-02-19 11:30,50.6304316666667,-96.98078,9.3,12.3,188,1000.56,-24.5,78,0.34,0.0,1031.57,43.0
2019-02-19 11:40,50.63043,-96.9807766666667,9.1,11.8,190,1000.58,-24.3,78,0.35,0.0,1031.59,43.0
2019-02-19 11:50,50.6304316666667,-96.9807766666667,9.6,12.9,190,1000.55,-24.2,78,0.35,0.0,1031.55,43.0
2019-02-19 12:00,50.6304316666667,-96.9807766666667,10.9,14.2,189,1000.40,-24.1,78,0.34,0.0,1031.40,143.4
2019-02-19 12:10,50.6304316666667,-96.9807733333333,10.1,12.9,190,1000.32,-24.0,78,0.34,0.0,1031.31,143.4
2019-02-19 12:20,50.6304366666667,-96.9807733333333,10.2,13.3,188,1000.18,-23.9,78,0.33,0.0,1031.16,143.4
2019-02-19 12:30,50.6304383333333,-96.9807733333333,11.5,13.7,185,999.89,-23.9,78,0.33,0.0,1030.85,143.4
2019-02-19 12:40,50.630435,-96.98077,11.7,13.9,185,999.84,-24.0,78,0.33,0.0,1030.81,143.4
2019-02-19 12:50,50.630435,-96.9807716666667,11.4,13.4,187,999.71,-23.9,78,0.33,0.0,1030.69,143.4
2019-02-19 13:00,50.630435,-96.98077,11.0,13.7,187,999.57,-23.8,78,0.32,0.0,1030.54,360.0
2019-02-19 13:10,50.6304383333333,-96.98077,10.3,12.9,187,999.43,-23.9,78,0.32,0.0,1030.40,360.0
2019-02-19 13:20,50.6304383333333,-96.98077,10.8,13.3,185,999.16,-24.0,78,0.32,0.0,1030.12,360.0
2019-02-19 13:30,50.6304616666667,-96.9807633333333,10.9,13.2,186,999.06,-24.0,78,0.32,0.0,1030.01,360.0
2019-02-19 13:40,50.6304366666667,-96.9807633333333,11.6,13.8,185,998.94,-24.0,78,0.32,0.0,1029.88,360.0
2019-02-19 13:50,50.6304366666667,-96.9807766666667,11.6,13.9,184,998.78,-23.9,78,0.32,0.0,1029.71,360.0
2019-02-19 14:00,50.6304416666667,-96.9807733333333,11.4,14.0,183,998.60,-23.7,78,0.31,0.0,1029.49,38.0
2019-02-19 14:10,50.63044,-96.9807733333333,11.2,13.9,184,998.50,-23.5,78,0.31,0.0,1029.38,38.0
2019-02-19 14:20,50.6304416666667,-96.9807716666667,11.6,13.7,184,998.43,-23.3,78,0.31,0.0,1029.28,38.0
2019-02-19 14:30,50.6304416666667,-96.98077,12.4,17.6,185,998.28,-23.0,78,0.30,0.0,1029.13,38.0
2019-02-19 14:40,50.6304433333333,-96.98077,14.4,17.6,186,998.14,-22.9,77,0.30,0.0,1028.97,38.0
2019-02-19 14:50,50.63044,-96.9807716666667,15.1,19.5,188,998.12,-22.8,76,0.30,0.0,1028.94,38.0
2019-02-19 15:00,50.630445,-96.98077,14.6,18.4,191,998.21,-22.6,76,0.30,0.0,1029.02,41.3
2019-02-19 15:10,50.63045,-96.98077,14.6,18.7,190,998.26,-22.3,76,0.30,0.0,1029.06,41.3
2019-02-19 15:20,50.6304483333333,-96.9807683333333,14.8,19.2,189,998.18,-22.1,76,0.30,0.0,1028.97,41.3
2019-02-19 15:30,50.6304466666667,-96.9807683333333,14.3,18.4,190,998.08,-21.9,75,0.30,0.0,1028.85,41.3
2019-02-19 15:40,50.6304483333333,-96.98077,14.8,18.4,188,997.93,-21.8,75,0.30,0.0,1028.68,41.3
2019-02-19 15:50,50.6304483333333,-96.98077,13.9,18.4,191,997.95,-21.6,74,0.30,0.0,1028.68,41.3
2019-02-19 16:00,50.6304483333333,-96.9807716666667,12.5,16.5,189,998.02,-21.4,74,0.29,0.0,1028.73,345.5
2019-02-19 16:10,50.6304483333333,-96.9807733333333,12.8,16.7,186,998.01,-21.3,73,0.29,0.0,1028.69,345.5
2019-02-19 16:20,50.6304216666667,-96.9807633333333,12.6,16.5,187,997.90,-21.1,73,0.29,0.0,1028.55,345.5
2019-02-19 16:30,50.6304366666667,-96.98078,12.8,16.8,188,997.77,-20.8,72,0.29,0.0,1028.39,345.5
2019-02-19 16:40,50.6304383333333,-96.9807816666667,12.6,16.4,190,997.75,-20.5,72,0.29,0.0,1028.35,345.5
2019-02-19 16:50,50.6304366666667,-96.9807816666667,13.0,18.3,186,997.71,-20.4,72,0.29,0.0,1028.28,345.5
2019-02-19 17:00,50.630435,-96.98078,13.4,16.5,183,997.54,-20.2,71,0.29,0.0,1028.09,240.8
2019-02-19 17:10,50.6304333333333,-96.98078,13.5,18.3,184,997.48,-19.8,71,0.29,0.0,1027.98,240.8
2019-02-19 17:20,50.630455,-96.9807833333333,13.7,17.2,183,997.28,-19.4,70,0.29,0.0,1027.74,240.8
2019-02-19 17:30,50.63045,-96.980785,14.8,18.8,184,997.06,-19.0,70,0.29,0.0,1027.48,240.8
2019-02-19 17:40,50.6304466666667,-96.98078,14.7,18.5,184,996.91,-18.6,69,0.29,0.0,1027.29,240.8
2019-02-19 17:50,50.6304466666667,-96.9807783333333,14.2,17.8,182,996.93,-18.2,68,0.29,0.0,1027.28,240.8
2019-02-19 18:00,50.630445,-96.98078,13.8,17.7,185,996.95,-17.9,68,0.29,0.0,1027.27,270.0
2019-02-19 18:10,50.6304216666667,-96.980785,14.1,18.4,185,996.87,-17.6,68,0.29,0.0,1027.16,270.0
2019-02-19 18:20,50.6304333333333,-96.9807883333333,17.2,20.2,183,996.55,-17.6,67,0.29,0.0,1026.80,270.0
2019-02-19 18:30,50.630435,-96.9807866666667,16.5,21.2,182,996.41,-17.5,68,0.29,0.0,1026.64,270.0
2019-02-19 18:40,50.6304383333333,-96.9807816666667,16.2,20.6,184,996.37,-17.3,67,0.29,0.0,1026.58,270.0
2019-02-19 18:50,50.6304383333333,-96.98078,15.6,18.9,183,996.31,-17.0,67,0.29,0.0,1026.49,270.0
2019-02-19 19:00,50.63044,-96.9807766666667,16.4,20.6,179,996.12,-16.7,67,0.30,0.0,1026.26,142.0
2019-02-19 19:10,50.6304383333333,-96.980775,17.9,22.4,180,995.95,-16.7,67,0.30,0.0,1026.06,142.0
2019-02-19 19:20,50.6304383333333,-96.9807766666667,16.6,21.5,180,995.91,-16.4,67,0.30,0.0,1025.97,142.0
2019-02-19 19:30,50.6304383333333,-96.980775,17.9,22.2,181,995.75,-16.3,68,0.30,0.0,1025.78,142.0
2019-02-19 19:40,50.6304216666667,-96.9807666666667,18.2,24.1,182,995.59,-16.2,67,0.30,0.0,1025.58,142.0
2019-02-19 19:50,50.6304283333333,-96.9807716666667,18.1,24.3,183,995.42,-16.0,67,0.30,0.0,1025.38,142.0
2019-02-19 20:00,50.63044,-96.9807716666667,19.1,24.1,181,995.10,-15.8,67,0.30,0.0,1025.02,54.7
2019-02-19 20:10,50.630435,-96.9807666666667,18.0,23.1,184,994.99,-15.6,67,0.30,0.0,1024.89,54.7
2019-02-19 20:20,50.6304366666667,-96.980765,17.3,22.1,183,994.87,-15.4,68,0.31,0.0,1024.75,54.7
2019-02-19 20:30,50.6304383333333,-96.98077,17.1,22.6,181,994.68,-15.3,68,0.31,0.0,1024.54,54.7
2019-02-19 20:40,50.6304366666667,-96.9807683333333,19.6,24.9,181,994.43,-15.4,69,0.31,0.0,1024.27,54.7
2019-02-19 20:50,50.630435,-96.98077,19.1,24.9,182,994.36,-15.3,69,0.31,0.0,1024.18,54.7
2019-02-19 21:00,50.630455,-96.9807733333333,17.9,22.8,187,994.34,-15.1,68,0.31,0.0,1024.14,36.6
2019-02-19 21:10,50.6304483333333,-96.9807633333333,17.1,22.8,189,994.36,-15.0,68,0.31,0.0,1024.14,36.6
2019-02-19 21:20,50.630445,-96.9807633333333,17.9,23.3,185,994.12,-15.0,69,0.32,0.0,1023.89,36.6
2019-02-19 21:30,50.6304316666667,-96.98077,17.0,22.1,183,993.96,-15.0,69,0.32,0.0,1023.71,36.6
2019-02-19 21:40,50.6304383333333,-96.980775,17.4,23.2,184,993.78,-14.9,70,0.32,0.0,1023.51,36.6
2019-02-19 21:50,50.6304383333333,-96.98079,17.1,21.0,181,993.60,-14.9,70,0.32,0.0,1023.32,36.6
2019-02-19 22:00,50.6304383333333,-96.980785,18.8,25.6,179,993.36,-14.9,70,0.32,0.0,1023.06,270.0
2019-02-19 22:10,50.6304366666667,-96.9807783333333,19.4,26.1,180,993.28,-14.9,70,0.33,0.0,1022.96,270.0
2019-02-19 22:20,50.6304383333333,-96.9807783333333,18.7,23.5,181,993.19,-14.8,70,0.33,0.0,1022.87,270.0
2019-02-19 22:30,50.6304383333333,-96.9807783333333,18.6,25.3,179,993.04,-14.8,70,0.33,0.0,1022.71,270.0
2019-02-19 22:40,50.6304416666667,-96.980785,18.5,25.7,178,992.86,-14.8,69,0.33,0.0,1022.51,270.0
2019-02-19 22:50,50.6304366666667,-96.9807716666667,18.9,26.7,180,992.78,-14.7,69,0.33,0.0,1022.42,270.0
2019-02-19 23:00,50.6304383333333,-96.98077,17.8,25.4,181,992.63,-14.7,69,0.34,0.0,1022.26,90.0
2019-02-19 23:10,50.63044,-96.9807716666667,17.8,24.0,181,992.42,-14.8,69,0.34,0.0,1022.05,90.0
2019-02-19 23:20,50.6304383333333,-96.9807733333333,17.5,23.7,182,992.23,-14.9,70,0.34,0.0,1021.86,90.0
2019-02-19 23:30,50.63045,-96.9807933333333,17.5,22.2,181,992.12,-15.0,70,0.34,0.0,1021.75,90.0
